[[{"header":{"parameterUnit":"m.s-1","parameterCategory":1,"la1":30.2991,"la2":30.254,"lo1":-89.0895,"lo2":-89.0444,"dy":0.0017,"dx":0.0017,"nx":28,"ny":28,"refTime":"2025-06-11T21:00:00:Z","depth":0,"parameterNumber":2,"parameterNumberName":"U-component_of_WINDS"},"data":[0,0,0,0,0,0,0,0,0,0,0,0,0,0,0,0,0,0,0,0,0,0,0,0,0,0,0,0,0,0,0,0,0,0,0,0,0,0,0,0,0,0,0,0,0,0,0,0,0,0,0,0,0,0,0,0,0,0,0.3075,0.3074,0,0.3048,0.3048,0.3048,0.3019,0.3019,0.3018,0.3018,0.2992,0.2992,0.2991,0,0,0,0,0,0,0,0,0,0,0,0,0,0.3099,0.3099,0.3075,0.3074,0.3074,0.3048,0.3048,0.3048,0.3019,0.3019,0.3018,0.3018,0.2992,0.2992,0.2991,0,0,0,0,0,0,0,0,0,0,0,0,0,0.3082,0.3099,0.3075,0.3057,0.3055,0.3049,0.3048,0.3048,0.3019,0.3019,0.3018,0.3017,0.2992,0.2992,0.2991,0.3001,0,0,0.299,0.299,0,0,0,0,0,0,0,0,0.3083,0.3081,0.306,0.3058,0.3056,0.3036,0.3047,0.3032,0.3019,0.3033,0.3018,0.3017,0.3007,0.3005,0.3002,0.3,0.2999,0.299,0.2989,0.2989,0.2989,0,0,0,0,0,0,0,0.3085,0.3082,0.3064,0.3059,0.3057,0.305,0.3047,0.3044,0.3024,0.3032,0.3029,0.3027,0.3006,0.3002,0.3001,0.2998,0.299,0.2989,0.2989,0.2989,0.3,0.3001,0,0,0,0,0,0,0.3088,0.3084,0.3065,0.3063,0.3068,0.305,0.3046,0.3043,0.3024,0.302,0.3027,0.3025,0.3004,0.3002,0.3,0.3008,0.2989,0.2989,0.2989,0.3,0.3,0.3001,0,0,0,0,0,0,0.3089,0.3087,0.3066,0.3073,0.307,0.305,0.3047,0.3043,0.3039,0.302,0.3017,0.3027,0.3003,0.3001,0.3,0.3007,0.2989,0.2988,0.2999,0.3,0.3001,0.3027,0,0,0,0,0,0,0.309,0.3087,0.3091,0.3073,0.3069,0.3067,0.3047,0.3043,0.3039,0.3036,0.302,0.3016,0.3002,0.3001,0.3,0.3006,0.2988,0.2998,0.2999,0.3,0.3025,0.3028,0.3031,0,0,0,0,0,0.3091,0.31,0.3091,0.3089,0.3074,0.3068,0.3065,0.3049,0.3039,0.3043,0.303,0.3017,0.3007,0.3001,0.3,0.3006,0.2998,0.2999,0.3,0.3024,0.3028,0.3031,0,0,0,0,0,0,0.312,0.3097,0.3088,0.3091,0.3081,0.3063,0.3066,0.3054,0.3047,0.3045,0.3025,0.3021,0.3023,0.3015,0.3009,0.3013,0.3,0.3001,0.3019,0.3022,0.3025,0.3027,0.2987,0,0,0,0,0,0.3127,0.3124,0.3104,0.3109,0.3105,0.3086,0.3083,0.3071,0.306,0.3056,0.3044,0.3034,0.3028,0.3025,0.3019,0.3024,0.3019,0.3027,0.303,0.3033,0.3034,0.3034,0.3037,0.3005,0.3005,0.3005,0,0,0.3141,0.3128,0.3127,0.3115,0.3106,0.3102,0.3083,0.3081,0.3078,0.3056,0.3054,0.3045,0.3032,0.3034,0.3034,0.3027,0.3042,0.3035,0.3037,0.3036,0.3036,0.3039,0.3041,0.3006,0.3006,0.3006,0,0,0.3164,0.3155,0.3157,0.3148,0.3134,0.3122,0.3123,0.3105,0.3098,0.3096,0.3079,0.3075,0.3066,0.3057,0.3052,0.3071,0.3058,0.3069,0.3085,0.3085,0.3088,0.309,0.3095,0.3097,0.3071,0.3071,0.3071,0,0.3183,0.3178,0.316,0.3158,0.3153,0.3132,0.3133,0.3126,0.3111,0.3107,0.31,0.3087,0.3077,0.3076,0.308,0.3077,0.3076,0.3071,0.3089,0.3091,0.3092,0.3097,0.3099,0.3072,0.3072,0.3072,0.3072,0,0.3201,0.3197,0.3201,0.3186,0.3181,0.3181,0.3163,0.316,0.3148,0.3137,0.3134,0.3121,0.3111,0.3111,0.31,0.3107,0.3103,0.3093,0.3079,0.3097,0.3101,0.3103,0.3074,0.3074,0.3073,0.3073,0,0,0.3242,0.3217,0.3218,0.321,0.3193,0.319,0.3189,0.3179,0.3176,0.3166,0.3164,0.3156,0.3146,0.3139,0.3127,0.3128,0.3142,0.3117,0.3116,0.3121,0.3147,0.3154,0.3157,0.3133,0.3133,0.3134,0.3148,0,0.3261,0.3257,0.3241,0.3242,0.3237,0.3217,0.3216,0.3205,0.3194,0.3188,0.3176,0.317,0.3158,0.3153,0.3153,0.314,0.3146,0.3139,0.313,0.313,0.3132,0.3159,0.3167,0.3181,0.3149,0.315,0.315,0,0.3284,0.3274,0.3274,0.3256,0.3253,0.3252,0.3241,0.3236,0.3223,0.3215,0.3207,0.3193,0.319,0.3178,0.3172,0.3168,0.3163,0.3156,0.3156,0.3154,0.314,0.3156,0.3185,0.3187,0.3153,0.3152,0.3152,0,0.3311,0.3299,0.3297,0.3291,0.327,0.327,0.3261,0.3247,0.3241,0.3232,0.3228,0.3218,0.3212,0.3205,0.3188,0.3181,0.3184,0.3171,0.3176,0.3177,0.3177,0.3177,0.3205,0.3177,0.3177,0.3177,0.3177,0,0.3334,0.3334,0.3309,0.3308,0.3307,0.3288,0.3288,0.3277,0.3265,0.3261,0.3243,0.324,0.3219,0.3212,0.32,0.3196,0.3194,0.3187,0.3183,0.3188,0.3189,0.3184,0.3182,0.3177,0.3177,0.3177,0.3177,0,0.3364,0.3348,0.3344,0.3324,0.3319,0.3319,0.3302,0.3299,0.3287,0.3281,0.3279,0.326,0.3251,0.3234,0.3222,0.3213,0.3212,0.3207,0.3216,0.3214,0.3219,0.3219,0.3244,0.3245,0.3218,0.3218,0.3218,0,0.3379,0.3379,0.3358,0.3354,0.3346,0.3339,0.3333,0.3314,0.3309,0.3293,0.3292,0.3282,0.3273,0.3261,0.3245,0.3235,0.3228,0.3238,0.3227,0.3231,0.3227,0.3226,0.3226,0.324,0.324,0.3241,0.3241,0,0.3407,0.3398,0.339,0.3379,0.3372,0.3362,0.3351,0.3349,0.3327,0.3322,0.3313,0.3306,0.3292,0.3282,0.3269,0.326,0.3247,0.3245,0.3245,0.3249,0.3254,0.325,0.3222,0.3244,0.3244,0.3244,0.3243,0.3243,0.3429,0.3427,0.3412,0.3403,0.3393,0.3383,0.3379,0.3366,0.3358,0.3345,0.3334,0.3326,0.3311,0.3293,0.3284,0.3277,0.3271,0.3272,0.3272,0.3272,0.3273,0.3256,0.3275,0.3275,0.3275,0.3274,0.3274,0,0.3454,0.3443,0.3435,0.342,0.3413,0.3401,0.3388,0.3383,0.3375,0.3363,0.3354,0.3343,0.3333,0.3317,0.3305,0.3302,0.3296,0.33,0.3299,0.3297,0.328,0.328,0.3305,0.3305,0.3305,0.3305,0.3305,0.3305,0.3466,0.3462,0.3451,0.3441,0.343,0.3421,0.3415,0.3405,0.3395,0.3384,0.3375,0.3364,0.335,0.3337,0.3327,0.3322,0.3318,0.3324,0.3317,0.3301,0.3299,0.3296,0.3296,0.3324,0.3324,0.3335,0.3335,0.3335]},{"header":{"parameterUnit":"m.s-1","parameterCategory":1,"la1":30.2991,"la2":30.254,"lo1":-89.0895,"lo2":-89.0444,"dy":0.0017,"dx":0.0017,"nx":28,"ny":28,"refTime":"2025-06-11T21:00:00:Z","depth":0,"parameterNumber":3,"parameterNumberName":"V-component_of_WINDS"},"data":[0,0,0,0,0,0,0,0,0,0,0,0,0,0,0,0,0,0,0,0,0,0,0,0,0,0,0,0,0,0,0,0,0,0,0,0,0,0,0,0,0,0,0,0,0,0,0,0,0,0,0,0,0,0,0,0,0,0,3.7504,3.7505,0,3.7577,3.7578,3.7579,3.7545,3.7543,3.7541,3.7539,3.7609,3.7613,3.7616,0,0,0,0,0,0,0,0,0,0,0,0,0,3.7328,3.7331,3.7504,3.7505,3.7506,3.7577,3.7578,3.7579,3.7545,3.7543,3.754,3.7538,3.7608,3.7612,3.7617,0,0,0,0,0,0,0,0,0,0,0,0,0,3.7403,3.7332,3.7504,3.7497,3.7497,3.7577,3.7578,3.7579,3.7545,3.7543,3.754,3.7537,3.7607,3.7612,3.7617,3.7706,0,0,3.7634,3.7636,0,0,0,0,0,0,0,0,3.7399,3.7409,3.7497,3.7498,3.7498,3.7549,3.7542,3.7622,3.7546,3.7527,3.7539,3.7536,3.7591,3.7598,3.7617,3.7709,3.7712,3.7634,3.7638,3.764,3.7641,0,0,0,0,0,0,0,3.7393,3.7406,3.7533,3.7499,3.7499,3.7489,3.7496,3.7557,3.7574,3.7528,3.7526,3.7536,3.7591,3.7612,3.7619,3.7713,3.7634,3.7639,3.7642,3.7644,3.7878,3.7881,0,0,0,0,0,0,3.7389,3.7402,3.753,3.7535,3.7441,3.7494,3.7503,3.7535,3.7573,3.7576,3.7538,3.7534,3.7604,3.7613,3.7621,3.7725,3.764,3.7645,3.7648,3.7875,3.7879,3.7882,0,0,0,0,0,0,3.7385,3.7401,3.7527,3.7468,3.7483,3.75,3.7537,3.7538,3.756,3.758,3.7582,3.7557,3.7603,3.7614,3.7685,3.7727,3.7647,3.7652,3.7872,3.7876,3.7881,3.7936,0,0,0,0,0,0,3.7381,3.74,3.7435,3.7469,3.7486,3.7592,3.754,3.7542,3.757,3.7565,3.7599,3.7601,3.7601,3.7677,3.769,3.7733,3.7656,3.7868,3.7874,3.7879,3.793,3.7942,3.7952,0,0,0,0,0,3.7374,3.7447,3.7437,3.7453,3.7531,3.7595,3.7604,3.7604,3.7573,3.7608,3.762,3.76,3.7721,3.7685,3.7699,3.7745,3.7865,3.7872,3.7879,3.7926,3.794,3.7951,0,0,0,0,0,0,3.7417,3.7452,3.7441,3.7527,3.7558,3.7589,3.7632,3.7619,3.7658,3.7652,3.7648,3.7656,3.773,3.7744,3.7703,3.7831,3.7788,3.7798,3.7819,3.7832,3.7843,3.7837,3.7661,0,0,0,0,0,3.7437,3.7487,3.7514,3.7587,3.7604,3.7616,3.7643,3.764,3.7671,3.7684,3.7702,3.7731,3.7775,3.7805,3.7847,3.7932,3.7938,3.7971,3.7981,3.799,3.7998,3.8042,3.8056,3.7904,3.7904,3.7904,0,0,3.7477,3.7503,3.7534,3.7597,3.762,3.767,3.7627,3.7682,3.7718,3.7692,3.776,3.7774,3.7807,3.7885,3.792,3.7899,3.8041,3.7998,3.8005,3.8009,3.805,3.8065,3.8078,3.7909,3.7908,3.7907,0,0,3.7577,3.7602,3.7665,3.769,3.7727,3.7734,3.7749,3.7781,3.779,3.7859,3.7839,3.7881,3.7958,3.7982,3.8004,3.811,3.8092,3.8124,3.8179,3.8222,3.8234,3.8244,3.828,3.8294,3.8132,3.8132,3.8133,0,3.7622,3.7699,3.7699,3.7755,3.7782,3.7762,3.7824,3.7847,3.7895,3.7913,3.789,3.7985,3.8005,3.8088,3.8114,3.8133,3.8148,3.812,3.8232,3.8243,3.8253,3.8287,3.8301,3.8136,3.8136,3.8135,3.8135,0,3.7752,3.7805,3.7851,3.7899,3.7931,3.799,3.7997,3.8029,3.8023,3.8032,3.81,3.8125,3.817,3.819,3.8184,3.8271,3.8256,3.8233,3.8189,3.8271,3.8303,3.8316,3.8141,3.814,3.8139,3.8138,0,0,3.7881,3.7927,3.7944,3.7965,3.8003,3.8043,3.81,3.8146,3.8172,3.8206,3.8252,3.8317,3.8295,3.832,3.8316,3.8354,3.8434,3.8325,3.8326,3.8343,3.8529,3.8545,3.8561,3.8423,3.8426,3.8428,3.8526,0,3.7981,3.8083,3.8084,3.8177,3.8224,3.8205,3.8254,3.8282,3.8291,3.8331,3.834,3.8386,3.8355,3.8369,3.8406,3.8417,3.8471,3.841,3.8464,3.8466,3.8455,3.8578,3.8596,3.8687,3.8538,3.854,3.8542,0,3.8113,3.8152,3.825,3.8279,3.8299,3.8344,3.8385,3.8424,3.8454,3.8458,3.8485,3.8476,3.8531,3.8487,3.8562,3.852,3.8542,3.855,3.8554,3.8558,3.8508,3.8584,3.8717,3.873,3.8562,3.8561,3.8559,0,3.8195,3.8271,3.8339,3.8357,3.8395,3.8426,3.8442,3.847,3.8496,3.8532,3.8548,3.8589,3.8611,3.8642,3.8643,3.8611,3.8718,3.8674,3.872,3.872,3.8743,3.8741,3.888,3.876,3.8759,3.8759,3.8759,0,3.8307,3.8367,3.8376,3.8418,3.8483,3.8483,3.8547,3.8561,3.8585,3.8627,3.8612,3.8652,3.8651,3.869,3.8691,3.8751,3.8762,3.8765,3.8764,3.8766,3.8765,3.8779,3.8772,3.8763,3.8762,3.8761,3.8761,0,3.8409,3.8418,3.849,3.8519,3.8528,3.8575,3.8599,3.8637,3.8645,3.8698,3.871,3.8722,3.8768,3.8772,3.8824,3.8824,3.8897,3.889,3.8888,3.8886,3.8931,3.8926,3.9083,3.9102,3.8971,3.8972,3.8973,0,3.8479,3.8525,3.8559,3.8587,3.8606,3.8651,3.8678,3.8678,3.8707,3.8744,3.8777,3.8821,3.8857,3.893,3.8941,3.8981,3.8974,3.9026,3.8979,3.8979,3.8972,3.8969,3.8973,3.9034,3.9036,3.9037,3.9038,0,3.8602,3.8604,3.8645,3.8688,3.8721,3.8754,3.8785,3.8808,3.8811,3.8844,3.8891,3.8918,3.8972,3.9015,3.9053,3.9068,3.9053,3.9052,3.9065,3.9066,3.9062,3.9063,3.891,3.9049,3.9047,3.9047,3.9046,3.9046,3.8689,3.8728,3.8758,3.8804,3.8827,3.8856,3.8893,3.8906,3.8945,3.899,3.8987,3.9038,3.9064,3.9115,3.9132,3.9171,3.9153,3.9172,3.9176,3.918,3.9184,3.9057,3.9178,3.9177,3.9177,3.9177,3.9177,0,3.881,3.8828,3.887,3.8914,3.8949,3.8934,3.8966,3.8996,3.9042,3.9069,3.9104,3.9156,3.9198,3.9213,3.9253,3.9281,3.9275,3.9291,3.9288,3.9291,3.9199,3.9183,3.9295,3.9295,3.9295,3.9295,3.9295,3.9295,3.8877,3.8942,3.8947,3.9022,3.9039,3.909,3.911,3.9135,3.9157,3.9217,3.9252,3.9262,3.9283,3.9324,3.936,3.9363,3.9378,3.9397,3.9397,3.931,3.9298,3.9287,3.9272,3.9401,3.9401,3.9486,3.9487,3.9488]}]]